• In Uzbekistan
  • List of Countries
  • For 7 days
  • Water Temperature
  • Satellite Maps
  • Weather Map
  • Weather Widgets
  • user-avatar
    Login

    Hourly Weather Mingachevir

    Today, 24 June, Sunday

    Time Temperature Precipitation Wind Pressure Humidity
    00:00 +26°C° 0.1 mm 2 mps 749 mmHg 44%
    01:00 +26°C° 0 mm 2 mps 749 mmHg 44%
    02:00 +26°C° 0 mm 2 mps 749 mmHg 44%
    03:00 +25°C° 0 mm 2 mps 749 mmHg 45%
    04:00 +26°C° 0 mm 2 mps 750 mmHg 44%
    05:00 +26°C° 0 mm 2 mps 750 mmHg 44%
    06:00 +27°C° 0 mm 2 mps 750 mmHg 43%
    07:00 +29°C° 0 mm 3 mps 750 mmHg 38%
    08:00 +30°C° 0 mm 3 mps 750 mmHg 34%
    09:00 +33°C° 0 mm 4 mps 749 mmHg 29%
    10:00 +34°C° 0 mm 3 mps 749 mmHg 28%
    11:00 +35°C° 0 mm 3 mps 749 mmHg 27%
    12:00 +36°C° 0 mm 2 mps 749 mmHg 26%
    13:00 +37°C° 0 mm 2 mps 749 mmHg 25%
    14:00 +37°C° 0 mm 2 mps 748 mmHg 25%
    15:00 +38°C° 0 mm 2 mps 748 mmHg 24%
    16:00 +38°C° 0 mm 2 mps 748 mmHg 25%
    17:00 +38°C° 0 mm 2 mps 748 mmHg 26%
    18:00 +37°C° 0 mm 2 mps 749 mmHg 27%
    19:00 +35°C° 0 mm 2 mps 749 mmHg 30%
    20:00 +34°C° 0 mm 2 mps 750 mmHg 33%
    21:00 +31°C° 0 mm 2 mps 750 mmHg 35%
    22:00 +30°C° 0 mm 2 mps 751 mmHg 37%
    23:00 +29°C° 0 mm 2 mps 751 mmHg 38%

    Tomorrow, 25 June, Monday

    Time Temperature Precipitation Wind Pressure Humidity
    00:00 +28°C° 0 mm 2 mps 751 mmHg 39%
    01:00 +28°C° 0 mm 2 mps 751 mmHg 40%
    02:00 +27°C° 0 mm 1 mps 751 mmHg 42%
    03:00 +27°C° 0 mm 1 mps 751 mmHg 43%
    04:00 +27°C° 0 mm 1 mps 751 mmHg 42%
    05:00 +28°C° 0 mm 1 mps 752 mmHg 41%
    06:00 +29°C° 0 mm 1 mps 752 mmHg 41%
    07:00 +30°C° 0 mm 1 mps 752 mmHg 36%
    08:00 +32°C° 0 mm 1 mps 752 mmHg 32%
    09:00 +34°C° 0 mm 2 mps 751 mmHg 28%
    10:00 +36°C° 0 mm 2 mps 751 mmHg 26%
    11:00 +37°C° 0 mm 3 mps 751 mmHg 24%
    12:00 +38°C° 0 mm 3 mps 751 mmHg 23%
    13:00 +38°C° 0 mm 4 mps 750 mmHg 22%
    14:00 +40°C° 0 mm 4 mps 750 mmHg 22%
    15:00 +41°C° 0 mm 4 mps 750 mmHg 22%
    16:00 +40°C° 0 mm 4 mps 750 mmHg 23%
    17:00 +40°C° 0 mm 4 mps 750 mmHg 25%
    18:00 +38°C° 0 mm 4 mps 750 mmHg 26%
    19:00 +36°C° 0 mm 4 mps 750 mmHg 29%
    20:00 +34°C° 0 mm 3 mps 751 mmHg 31%
    21:00 +31°C° 0 mm 3 mps 751 mmHg 34%
    22:00 +30°C° 0 mm 3 mps 751 mmHg 35%
    23:00 +29°C° 0 mm 3 mps 751 mmHg 36%

    Day after tomorrow, 26 June, Tuesday

    Time Temperature Precipitation Wind Pressure Humidity
    00:00 +29°C° 0 mm 2 mps 751 mmHg 38%
    01:00 +28°C° 0 mm 2 mps 751 mmHg 38%
    02:00 +28°C° 0 mm 2 mps 751 mmHg 38%
    03:00 +27°C° 0 mm 1 mps 751 mmHg 38%
    04:00 +28°C° 0 mm 1 mps 751 mmHg 37%
    05:00 +28°C° 0 mm 2 mps 751 mmHg 36%
    06:00 +29°C° 0 mm 2 mps 751 mmHg 35%
    07:00 +31°C° 0 mm 2 mps 750 mmHg 32%
    08:00 +32°C° 0 mm 2 mps 750 mmHg 28%
    09:00 +35°C° 0 mm 2 mps 750 mmHg 24%
    10:00 +36°C° 0 mm 2 mps 750 mmHg 23%
    11:00 +38°C° 0 mm 2 mps 749 mmHg 21%
    12:00 +39°C° 0 mm 2 mps 749 mmHg 19%
    13:00 +39°C° 0 mm 2 mps 749 mmHg 19%
    14:00 +40°C° 0 mm 3 mps 748 mmHg 19%
    15:00 +42°C° 0 mm 3 mps 748 mmHg 19%
    16:00 +40°C° 0 mm 3 mps 748 mmHg 20%
    17:00 +40°C° 0 mm 3 mps 748 mmHg 22%
    18:00 +39°C° 0 mm 3 mps 748 mmHg 23%
    19:00 +37°C° 0 mm 3 mps 749 mmHg 26%
    20:00 +35°C° 0 mm 3 mps 749 mmHg 28%
    21:00 +33°C° 0 mm 3 mps 750 mmHg 31%
    22:00 +31°C° 0 mm 3 mps 750 mmHg 33%
    23:00 +30°C° 0 mm 2 mps 750 mmHg 34%

    27 June, Wednesday

    Time Temperature Precipitation Wind Pressure Humidity
    00:00 +29°C° 0 mm 2 mps 750 mmHg 36%
    01:00 +29°C° 0 mm 2 mps 749 mmHg 36%
    02:00 +28°C° 0 mm 2 mps 749 mmHg 36%
    03:00 +28°C° 0 mm 1 mps 749 mmHg 36%
    04:00 +29°C° 0 mm 2 mps 749 mmHg 36%
    05:00 +29°C° 0 mm 2 mps 749 mmHg 36%
    06:00 +30°C° 0 mm 2 mps 749 mmHg 35%
    07:00 +31°C° 0 mm 2 mps 749 mmHg 31%
    08:00 +34°C° 0 mm 2 mps 749 mmHg 27%
    09:00 +36°C° 0 mm 2 mps 749 mmHg 22%
    10:00 +37°C° 0 mm 2 mps 749 mmHg 21%
    11:00 +38°C° 0 mm 2 mps 748 mmHg 20%
    12:00 +40°C° 0 mm 2 mps 748 mmHg 18%
    13:00 +40°C° 0 mm 2 mps 748 mmHg 18%
    14:00 +42°C° 0 mm 3 mps 747 mmHg 18%
    15:00 +42°C° 0 mm 3 mps 747 mmHg 18%
    16:00 +42°C° 0 mm 3 mps 747 mmHg 19%
    17:00 +42°C° 0 mm 3 mps 747 mmHg 20%
    18:00 +40°C° 0 mm 3 mps 747 mmHg 21%
    19:00 +38°C° 0 mm 3 mps 748 mmHg 24%
    20:00 +36°C° 0 mm 3 mps 748 mmHg 26%
    21:00 +34°C° 0 mm 3 mps 749 mmHg 28%
    22:00 +32°C° 0 mm 2 mps 749 mmHg 30%
    23:00 +31°C° 0 mm 2 mps 749 mmHg 31%

    28 June, Thursday

    Time Temperature Precipitation Wind Pressure Humidity
    00:00 +30°C° 0 mm 2 mps 749 mmHg 33%
    01:00 +29°C° 0 mm 2 mps 749 mmHg 33%
    02:00 +29°C° 0 mm 2 mps 749 mmHg 34%
    03:00 +28°C° 0 mm 1 mps 749 mmHg 35%
    04:00 +29°C° 0 mm 1 mps 750 mmHg 35%
    05:00 +30°C° 0 mm 1 mps 750 mmHg 34%
    06:00 +30°C° 0 mm 2 mps 750 mmHg 34%
    07:00 +32°C° 0 mm 2 mps 750 mmHg 30%
    08:00 +35°C° 0 mm 2 mps 750 mmHg 26%
    09:00 +37°C° 0 mm 2 mps 750 mmHg 22%
    10:00 +38°C° 0 mm 2 mps 750 mmHg 21%
    11:00 +39°C° 0 mm 2 mps 750 mmHg 19%
    12:00 +40°C° 0 mm 3 mps 749 mmHg 17%
    13:00 +42°C° 0 mm 3 mps 749 mmHg 17%
    14:00 +43°C° 0 mm 4 mps 749 mmHg 16%
    15:00 +44°C° 0 mm 4 mps 748 mmHg 15%
    16:00 +43°C° 0 mm 4 mps 749 mmHg 16%
    17:00 +42°C° 0 mm 5 mps 749 mmHg 18%
    18:00 +42°C° 0 mm 5 mps 749 mmHg 19%
    19:00 +39°C° 0 mm 5 mps 749 mmHg 21%
    20:00 +36°C° 0 mm 4 mps 750 mmHg 23%
    21:00 +34°C° 0 mm 4 mps 750 mmHg 25%
    22:00 +33°C° 0 mm 4 mps 750 mmHg 26%
    23:00 +31°C° 0 mm 3 mps 750 mmHg 28%

    29 June, Friday

    Time Temperature Precipitation Wind Pressure Humidity
    00:00 +30°C° 0 mm 3 mps 750 mmHg 29%
    01:00 +29°C° 0 mm 2 mps 750 mmHg 29%
    02:00 +29°C° 0 mm 2 mps 750 mmHg 30%
    03:00 +28°C° 0 mm 1 mps 750 mmHg 30%
    04:00 +29°C° 0 mm 1 mps 750 mmHg 30%
    05:00 +30°C° 0 mm 1 mps 750 mmHg 30%
    06:00 +30°C° 0 mm 1 mps 750 mmHg 30%
    07:00 +32°C° 0 mm 1 mps 750 mmHg 27%
    08:00 +34°C° 0 mm 1 mps 750 mmHg 24%
    09:00 +35°C° 0 mm 1 mps 749 mmHg 20%
    10:00 +38°C° 0 mm 2 mps 749 mmHg 19%
    11:00 +39°C° 0 mm 2 mps 748 mmHg 17%
    12:00 +40°C° 0 mm 3 mps 748 mmHg 16%
    13:00 +42°C° 0 mm 3 mps 748 mmHg 15%
    14:00 +43°C° 0 mm 3 mps 747 mmHg 15%
    15:00 +43°C° 0 mm 4 mps 747 mmHg 14%
    16:00 +43°C° 0 mm 4 mps 747 mmHg 15%
    17:00 +42°C° 0 mm 3 mps 747 mmHg 16%
    18:00 +42°C° 0 mm 3 mps 747 mmHg 17%
    19:00 +39°C° 0 mm 3 mps 747 mmHg 20%
    20:00 +36°C° 0 mm 3 mps 748 mmHg 22%
    21:00 +34°C° 0 mm 4 mps 748 mmHg 24%
    22:00 +33°C° 0 mm 3 mps 748 mmHg 26%
    23:00 +31°C° 0 mm 3 mps 748 mmHg 28%
    Show more